When you browse on this site, cookies collect data to enhance your experience and personalize the content and advertising you see.
Visit our Privacy Policy to learn more. By continuing to use the site, you agree to this use of cookies and data.
  • In Österreich
  • Länderverzeichnis
  • Für 7 Tage
  • Wassertemperatur
  • Satellitenkarten
  • Wetterkarte
  • News
  • Widgets
  • user-avatar
    Anmelden

    Stündliche Wetter Toluca

    Heute, 13 Dezember, Donnerstag

    Zeit Temperatur Niederschläge Wind Luftdruck Luftfeuchtigkeit
    00:00 +8°C° 0 mm 1 m/S 551 mmHg 86%
    01:00 +8°C° 0 mm 1 m/S 551 mmHg 85%
    02:00 +8°C° 0 mm 1 m/S 550 mmHg 84%
    03:00 +8°C° 0 mm 1 m/S 550 mmHg 85%
    04:00 +8°C° 0 mm 1 m/S 550 mmHg 85%
    05:00 +8°C° 0 mm 1 m/S 550 mmHg 86%
    06:00 +8°C° 0 mm 2 m/S 551 mmHg 80%
    07:00 +10°C° 0 mm 2 m/S 552 mmHg 75%
    08:00 +12°C° 0 mm 2 m/S 553 mmHg 70%
    09:00 +13°C° 0 mm 2 m/S 553 mmHg 65%
    10:00 +13°C° 0 mm 3 m/S 554 mmHg 59%
    11:00 +16°C° 0 mm 3 m/S 554 mmHg 53%
    12:00 +16°C° 0 mm 3 m/S 554 mmHg 52%
    13:00 +16°C° 0 mm 3 m/S 553 mmHg 51%
    14:00 +16°C° 0 mm 3 m/S 553 mmHg 50%
    15:00 +14°C° 0 mm 2 m/S 552 mmHg 57%
    16:00 +13°C° 0 mm 2 m/S 551 mmHg 63%
    17:00 +11°C° 0 mm 1 m/S 550 mmHg 69%
    18:00 +10°C° 0 mm 1 m/S 550 mmHg 71%
    19:00 +10°C° 0 mm 1 m/S 550 mmHg 74%
    20:00 +9°C° 0 mm 1 m/S 551 mmHg 76%
    21:00 +9°C° 0 mm 1 m/S 551 mmHg 76%
    22:00 +9°C° 0 mm 1 m/S 551 mmHg 75%
    23:00 +8°C° 0 mm 1 m/S 551 mmHg 74%

    Morgen, 14 Dezember, Freitag

    Zeit Temperatur Niederschläge Wind Luftdruck Luftfeuchtigkeit
    00:00 +8°C° 0 mm 1 m/S 550 mmHg 75%
    01:00 +8°C° 0 mm 1 m/S 550 mmHg 76%
    02:00 +7°C° 0 mm 1 m/S 550 mmHg 76%
    03:00 +7°C° 0 mm 1 m/S 550 mmHg 77%
    04:00 +7°C° 0 mm 1 m/S 550 mmHg 77%
    05:00 +7°C° 0 mm 1 m/S 550 mmHg 78%
    06:00 +8°C° 0 mm 1 m/S 551 mmHg 72%
    07:00 +10°C° 0 mm 1 m/S 552 mmHg 67%
    08:00 +12°C° 0 mm 1 m/S 553 mmHg 62%
    09:00 +13°C° 0 mm 1 m/S 554 mmHg 55%
    10:00 +15°C° 0 mm 1 m/S 555 mmHg 48%
    11:00 +17°C° 0 mm 2 m/S 555 mmHg 41%
    12:00 +17°C° 0 mm 2 m/S 555 mmHg 41%
    13:00 +17°C° 0 mm 2 m/S 554 mmHg 41%
    14:00 +17°C° 0 mm 2 m/S 553 mmHg 41%
    15:00 +15°C° 0 mm 2 m/S 553 mmHg 49%
    16:00 +13°C° 0 mm 1 m/S 552 mmHg 57%
    17:00 +11°C° 0 mm 1 m/S 551 mmHg 66%
    18:00 +11°C° 0 mm 1 m/S 551 mmHg 68%
    19:00 +10°C° 0 mm 1 m/S 551 mmHg 71%
    20:00 +9°C° 0 mm 1 m/S 552 mmHg 74%
    21:00 +9°C° 0 mm 1 m/S 552 mmHg 76%
    22:00 +8°C° 0 mm 1 m/S 551 mmHg 79%
    23:00 +8°C° 0 mm 1 m/S 551 mmHg 81%

    übermorgen, 15 Dezember, Samstag

    Zeit Temperatur Niederschläge Wind Luftdruck Luftfeuchtigkeit
    00:00 +8°C° 0 mm 1 m/S 551 mmHg 82%
    01:00 +8°C° 0 mm 1 m/S 551 mmHg 84%
    02:00 +7°C° 0 mm 1 m/S 551 mmHg 85%
    03:00 +7°C° 0 mm 1 m/S 551 mmHg 86%
    04:00 +7°C° 0 mm 1 m/S 551 mmHg 86%
    05:00 +7°C° 0 mm 1 m/S 551 mmHg 87%
    06:00 +8°C° 0 mm 1 m/S 552 mmHg 81%
    07:00 +9°C° 0 mm 1 m/S 553 mmHg 76%
    08:00 +11°C° 0 mm 1 m/S 554 mmHg 71%
    09:00 +13°C° 0 mm 1 m/S 555 mmHg 61%
    10:00 +15°C° 0 mm 1 m/S 556 mmHg 52%
    11:00 +18°C° 0 mm 1 m/S 557 mmHg 42%
    12:00 +19°C° 0 mm 1 m/S 556 mmHg 42%
    13:00 +19°C° 0 mm 1 m/S 555 mmHg 41%
    14:00 +18°C° 0 mm 2 m/S 555 mmHg 40%
    15:00 +16°C° 0 mm 1 m/S 554 mmHg 48%
    16:00 +14°C° 0 mm 1 m/S 553 mmHg 56%
    17:00 +12°C° 0 mm 1 m/S 552 mmHg 64%
    18:00 +12°C° 0 mm 1 m/S 553 mmHg 69%
    19:00 +11°C° 0 mm 1 m/S 553 mmHg 73%
    20:00 +9°C° 0 mm 0 m/S 553 mmHg 78%
    21:00 +9°C° 0 mm 1 m/S 553 mmHg 79%
    22:00 +9°C° 0 mm 1 m/S 553 mmHg 80%
    23:00 +9°C° 0 mm 1 m/S 553 mmHg 82%

    16 Dezember, Sonntag

    Zeit Temperatur Niederschläge Wind Luftdruck Luftfeuchtigkeit
    00:00 +8°C° 0 mm 1 m/S 553 mmHg 83%
    01:00 +8°C° 0 mm 1 m/S 552 mmHg 83%
    02:00 +8°C° 0 mm 1 m/S 552 mmHg 84%
    03:00 +8°C° 0 mm 1 m/S 552 mmHg 84%
    04:00 +8°C° 0 mm 1 m/S 552 mmHg 84%
    05:00 +7°C° 0 mm 1 m/S 552 mmHg 84%
    06:00 +9°C° 0 mm 1 m/S 553 mmHg 78%
    07:00 +10°C° 0 mm 0 m/S 554 mmHg 72%
    08:00 +11°C° 0 mm 0 m/S 556 mmHg 65%
    09:00 +14°C° 0 mm 1 m/S 556 mmHg 58%
    10:00 +16°C° 0 mm 1 m/S 557 mmHg 51%
    11:00 +19°C° 0 mm 1 m/S 558 mmHg 44%
    12:00 +19°C° 0 mm 1 m/S 557 mmHg 44%
    13:00 +19°C° 0 mm 1 m/S 556 mmHg 44%
    14:00 +18°C° 0 mm 2 m/S 556 mmHg 44%
    15:00 +16°C° 0 mm 1 m/S 555 mmHg 51%
    16:00 +15°C° 0 mm 1 m/S 554 mmHg 58%
    17:00 +13°C° 0 mm 1 m/S 554 mmHg 65%
    18:00 +12°C° 0 mm 1 m/S 554 mmHg 68%
    19:00 +11°C° 0 mm 1 m/S 554 mmHg 72%
    20:00 +10°C° 0 mm 1 m/S 554 mmHg 75%
    21:00 +10°C° 0 mm 1 m/S 554 mmHg 75%
    22:00 +10°C° 0 mm 1 m/S 553 mmHg 76%
    23:00 +9°C° 0 mm 1 m/S 553 mmHg 76%

    17 Dezember, Montag

    Zeit Temperatur Niederschläge Wind Luftdruck Luftfeuchtigkeit
    00:00 +9°C° 0 mm 1 m/S 553 mmHg 76%
    01:00 +9°C° 0 mm 1 m/S 553 mmHg 77%
    02:00 +9°C° 0 mm 1 m/S 552 mmHg 77%
    03:00 +8°C° 0 mm 1 m/S 552 mmHg 78%
    04:00 +8°C° 0 mm 1 m/S 552 mmHg 79%
    05:00 +8°C° 0 mm 1 m/S 552 mmHg 79%
    06:00 +9°C° 0 mm 1 m/S 553 mmHg 74%
    07:00 +11°C° 0 mm 1 m/S 554 mmHg 69%
    08:00 +12°C° 0 mm 1 m/S 555 mmHg 64%
    09:00 +14°C° 0 mm 1 m/S 556 mmHg 57%
    10:00 +16°C° 0 mm 1 m/S 556 mmHg 50%
    11:00 +19°C° 0 mm 1 m/S 557 mmHg 44%
    12:00 +19°C° 0 mm 1 m/S 556 mmHg 45%
    13:00 +18°C° 0 mm 2 m/S 556 mmHg 45%
    14:00 +18°C° 0 mm 2 m/S 555 mmHg 46%
    15:00 +16°C° 0 mm 1 m/S 554 mmHg 53%
    16:00 +15°C° 0 mm 1 m/S 554 mmHg 60%
    17:00 +13°C° 0 mm 1 m/S 553 mmHg 67%
    18:00 +13°C° 0 mm 1 m/S 553 mmHg 70%
    19:00 +12°C° 0 mm 1 m/S 553 mmHg 74%
    20:00 +10°C° 0 mm 0 m/S 553 mmHg 77%
    21:00 +9°C° 0 mm 0 m/S 553 mmHg 78%
    22:00 +9°C° 0 mm 0 m/S 552 mmHg 79%
    23:00 +9°C° 0 mm 0 m/S 552 mmHg 79%

    18 Dezember, Dienstag

    Zeit Temperatur Niederschläge Wind Luftdruck Luftfeuchtigkeit
    00:00 +8°C° 0 mm 0 m/S 552 mmHg 81%
    01:00 +8°C° 0 mm 0 m/S 552 mmHg 82%
    02:00 +8°C° 0 mm 0 m/S 551 mmHg 83%
    03:00 +8°C° 0 mm 0 m/S 551 mmHg 84%
    04:00 +8°C° 0 mm 0 m/S 551 mmHg 85%
    05:00 +7°C° 0 mm 0 m/S 551 mmHg 86%
    06:00 +9°C° 0 mm 0 m/S 552 mmHg 81%
    07:00 +10°C° 0 mm 0 m/S 553 mmHg 75%
    08:00 +12°C° 0 mm 0 m/S 554 mmHg 70%
    09:00 +13°C° 0 mm 0 m/S 555 mmHg 63%
    10:00 +16°C° 0 mm 1 m/S 555 mmHg 56%
    11:00 +19°C° 0 mm 1 m/S 556 mmHg 49%
    12:00 +19°C° 0 mm 1 m/S 555 mmHg 51%
    13:00 +18°C° 0 mm 1 m/S 554 mmHg 52%
    14:00 +17°C° 0 mm 2 m/S 553 mmHg 53%
    15:00 +16°C° 0.1 mm 1 m/S 553 mmHg 60%
    16:00 +14°C° 0.1 mm 1 m/S 552 mmHg 66%
    17:00 +13°C° 0.1 mm 1 m/S 552 mmHg 73%
    18:00 +12°C° 0 mm 1 m/S 552 mmHg 76%
    19:00 +11°C° 0 mm 0 m/S 552 mmHg 80%
    20:00 +10°C° 0 mm 0 m/S 552 mmHg 83%
    21:00 +10°C° 0 mm 0 m/S 552 mmHg 84%
    22:00 +9°C° 0 mm 0 m/S 552 mmHg 85%
    23:00 +9°C° 0 mm 0 m/S 552 mmHg 87%
    Mehr zeigen